Transit VE-3

operational
NORAD ID: 705 Int'l Des: 1963-049 Owner: BUWEPS Country: US
LEOCIRCULARPOLAR

About Transit VE-3

Description loading...

Live Position

Loading 3D Globe...

Upcoming Passes

Altitude History

Altitude vs Time

uPlot chart will show altitude changes over time

Two-Line Element Set

1 705U 63049C 26046.85405407 .00000083 00000-0 12022-3 0 9996
2 705 89.9155 71.3725 0032022 242.6072 238.9988 13.47657330 55756
Epoch: Feb 15, 2026 • Age: 11 hours

Current Status

Altitude 1070.7 km
Velocity 7.32 km/s
Sub-Earth Point -21.31°S, 8.66°W
Type other

Large Constellations

Loading constellations...